Volver al catálogo

CZ-6A DEB

ActivoPO
NORAD 60960·DEBRIS·🇨🇳 China

Lanzado Aug 6, 2024 desde Taiyuan Satellite Launch Center

Loading…

Próximos Pases (próximas 24 horas)

TLE

ActualizadoSource: Space-Track

Época: Sep 14, 2026, 07:42 UTC

1 60960U 24140LK  26257.32140030  .00000636  00000-0  28475-3 0  9991
2 60960  89.0699 271.3780 0046007 233.8924 125.8004 14.20880926107244

Sigue CZ-6A DEB en tiempo real con AllMySat

Download on the App Store